Flag for U.S.A. Weather past 2 weeks in Bridgeport, Connecticut, U.S.A.

Now
67 °F

Clear.


Feels Like: 67 °F
Forecast: 63 / 84 °F
Wind: No wind

Location: Sikorsky Memorial Airport

Current Time: Jul 4, 2015 at 11:52:56 PM

Latest Report: Jul 4, 2015 at 10:52 PM


Visibility: 4 mi

Pressure: 30.01 "Hg

Humidity: 79%

Dew point: 60 °F

Location of BridgeportLocation

Historic Weather in Bridgeport — Graph

°F

Bridgeport temperature yesterday

Maximum temperature yesterday: 77 °F (at 2:52 PM)
Minimum temperature yesterday: 65 °F (at 5:52 AM)
Average temperature yesterday: 71 °F

Past Weeks' High & Low Weather Summary

 TemperatureHumidityPressure
High88 °F (Jun 21, 5:52 PM)100% (Jun 21, 2:52 AM)30.14 "Hg (Jun 21, 2:52 AM)
Low60 °F (Jun 27, 11:52 PM)36% (Jun 25, 12:52 PM)29.65 "Hg (Jun 28, 11:52 AM)
Average72 °F70%29.91 "Hg
* Reported Jun 19 9:52 PM — Jul 4 9:52 PM, Bridgeport, Weather by CustomWeather, © 2015

Note: Actual official high and low records may vary slightly from our data, if they occured in-between our weather recording intervals... More about our weather records

Advertising

Bridgeport weather history for previous 24 hours

 ConditionsComfort  
Time TempWeatherWind HumidityBarometerVisibility
9:52 PM
Sat, Jul 4
69 °FClear.No wind73%29.99 "Hg10 mi
8:52 PM70 °FOvercast.No wind64%29.98 "Hg10 mi
7:52 PM70 °FOvercast.No wind71%29.96 "Hg10 mi
6:52 PM71 °FSunny.7 mph73%29.95 "Hg10 mi
5:52 PM72 °FSunny.10 mph73%29.94 "Hg10 mi
4:52 PM73 °FSunny.7 mph71%29.93 "Hg10 mi
3:52 PM72 °FScattered clouds.6 mph71%29.95 "Hg10 mi
2:52 PM72 °FPartly sunny.7 mph73%29.95 "Hg10 mi
1:52 PM72 °FOvercast.7 mph73%29.96 "Hg10 mi
12:52 PM72 °FOvercast.8 mph68%29.96 "Hg10 mi
11:52 AM71 °FOvercast.9 mph73%29.96 "Hg10 mi
10:52 AM70 °FOvercast.10 mph76%29.97 "Hg10 mi
9:52 AM69 °FScattered clouds.10 mph84%29.96 "Hg10 mi
8:52 AM69 °FPartly sunny.10 mph84%29.96 "Hg10 mi
7:52 AM69 °FSunny.9 mph84%29.96 "Hg10 mi
6:52 AM68 °FSunny.8 mph87%29.97 "Hg10 mi
5:52 AM68 °FPassing clouds.7 mph90%29.96 "Hg10 mi
4:52 AM68 °FClear.6 mph84%29.97 "Hg10 mi
3:52 AM68 °FClear.5 mph82%29.98 "Hg10 mi
2:52 AM68 °FClear.5 mph82%29.98 "Hg10 mi
1:52 AM69 °FClear.No wind76%29.99 "Hg10 mi
12:52 AM68 °FClear.3 mph78%29.98 "Hg10 mi
11:52 PM
Fri, Jul 3
69 °FClear.No wind76%29.99 "Hg10 mi
Weather by CustomWeather, © 2015

See weather overviewHow to use our weather pages